Regional Weather Roundup
Issued by NWS

Home | Current Version | Previous Version | Text Only | Print | Product List | Glossary Off
Versions: 1 2 3 4 5 6 7 8 9 10 11 12 13 14 15 16 17 18 19 20 21 22 23 24 25 26 27 28 29 30 31 32 33 34 35 36 37 38 39 40 41 42 43 44 45 46 47 48 49 50

296
ASUS43 KMKX 161200
RWRWI

WISCONSIN REGIONAL WEATHER ROUNDUP
NATIONAL WEATHER SERVICE MILWAUKEE/SULLIVAN WI
600 AM CST SAT DEC 16 2017

NOTE: "FAIR" INDICATES FEW OR NO CLOUDS BELOW 12,000 FEET WITH NO
SIGNIFICANT WEATHER AND/OR OBSTRUCTIONS TO VISIBILITY.

WIZ001-002-006>008-014>016-023>028-161300-
NORTHWEST WISCONSIN

CITY           SKY/WX    TMP DP  RH WIND       PRES   REMARKS
SUPERIOR ARPT  CLOUDY    15   9  78 E3        29.84R
ASHLAND        CLOUDY     5   2  87 E3        29.86R
6HR MIN TEMP:   4; 6HR MAX TEMP:  12;

HAYWARD        CLOUDY    15   9  76 NE8       29.81R WCI   4
6HR MIN TEMP:  14; 6HR MAX TEMP:  16; 6HR PCP:  0.01;

SIREN          CLOUDY    19  15  83 E6        29.78R WCI  11
CUMBERLAND     CLOUDY    19  16  86 E8        29.74S WCI   9
RICE LAKE      CLOUDY    21  17  87 CALM      29.77R
CHETEK         CLOUDY    20  17  87 E7        29.76R WCI  11
LADYSMITH      CLOUDY    17  13  82 E10       29.80R WCI   5
EAU CLAIRE     CLOUDY    22  19  89 NE10      29.76R WCI  11
6HR MIN TEMP:  22; 6HR MAX TEMP:  23; 6HR PCP: TRACE;

MENOMONIE      CLOUDY    24  22  91 E6        29.74S WCI  17
NEW RICHMOND   CLOUDY    23  20  89 E7        29.72R WCI  15
OSCEOLA        CLOUDY    24  20  86 E7        29.75R WCI  16
$$

WIZ003>005-009-010-017-018-161300-
NORTH CENTRAL WISCONSIN

CITY           SKY/WX    TMP DP  RH WIND       PRES   REMARKS
MANITOWISH WTR CLOUDY     3   2  94 E3        29.80R
ARBOR VITAE    CLOUDY     8   4  85 CALM      29.80R
WOODRUFF       CLOUDY     8   4  85 CALM      29.80R
RHINELANDER    CLOUDY     7   5  91 E5        29.81R WCI  -2
6HR MIN TEMP:   4; 6HR MAX TEMP:  11; 6HR PCP: TRACE;

EAGLE RIVER    CLOUDY     4   0  85 CALM      29.80R
LAND O LAKES   CLOUDY     8   5  86 CALM      29.83R
PHILLIPS       CLOUDY    10   8  89 E3        29.79R
TOMAHAWK       CLOUDY     9   6  89 CALM      29.81R
MEDFORD        CLOUDY    15  11  85 E12       29.77R WCI   1
MERRILL        CLOUDY    13  10  84 E7        29.81S WCI   3
$$

WIZ029-030-035-036-043>047-161300-
CENTRAL WISCONSIN

CITY           SKY/WX    TMP DP  RH WIND       PRES   REMARKS
WAUSAU         CLOUDY    14   9  80 E8        29.82R WCI   3
6HR MIN TEMP:  13; 6HR MAX TEMP:  15; 6HR PCP:  0.03;

MOSINEE        CLOUDY    14  10  85 E10G17    29.83R WCI   1
MARSHFIELD     CLOUDY    17  13  84 E15       29.77R WCI   2
6HR MIN TEMP:  17; 6HR MAX TEMP:  19; 6HR PCP: TRACE;

STEVENS POINT  CLOUDY    14  11  89 E10       29.83R WCI   1
WAUPACA        CLOUDY    19  14  81 NE7       29.86R WCI  10
WAUTOMA        CLOUDY    18  14  84 NE10      29.84R WCI   6
6HR MIN TEMP:  18; 6HR MAX TEMP:  20;

WISC RAPIDS    CLOUDY    17  12  80 E15       29.82R WCI   2
6HR MIN TEMP:  17; 6HR MAX TEMP:  21; 6HR PCP:  0.02;

CAMP DOUGLAS   NOT AVBL
$$

WIZ011>013-019>022-031-037>040-048>050-161300-
NORTHEAST WISCONSIN

CITY           SKY/WX    TMP DP  RH WIND       PRES   REMARKS
ANTIGO         CLOUDY    11   8  85 E5        29.82R WCI   3
SHAWANO        CLOUDY    16  12  84 NE3       29.87S
OCONTO         CLOUDY    14   6  73 N3        29.89R
STURGEON BAY   CLOUDY    18  10  71 MISG      29.90R
6HR MIN TEMP:  16; 6HR MAX TEMP:  18; 6HR PCP: TRACE;

GREEN BAY      CLOUDY    18  14  84 NE7       29.88R WCI   9
6HR MIN TEMP:  16; 6HR MAX TEMP:  18; 6HR PCP:  0.05;

MANITOWOC      FLURRIES  18  16  92 N5        29.89R WCI  11
6HR MIN TEMP:  16; 6HR MAX TEMP:  18; 6HR PCP: TRACE;

APPLETON       CLOUDY    18  12  79 E12G17    29.83R WCI   5
CLINTONVILLE   CLOUDY    16  10  79 NE8       29.86R WCI   5
OSHKOSH        CLOUDY    19  15  84 NE12      29.84R WCI   7
6HR MIN TEMP:  19; 6HR MAX TEMP:  21; 6HR PCP:  0.04;

$$

WIZ032>034-041-042-053>061-161300-
SOUTHWEST WISCONSIN

CITY           SKY/WX    TMP DP  RH WIND       PRES   REMARKS
LA CROSSE      CLOUDY    33  27  78 CALM      29.74R
6HR MIN TEMP:  31; 6HR MAX TEMP:  33;

SPARTA         CLOUDY    29  28  94 E7        29.75R WCI  22
VIROQUA        CLOUDY    30  28  91 CALM      29.71R
BOSCOBEL       CLOUDY    29  24  82 CALM      29.76R
6HR MIN TEMP:  28; 6HR MAX TEMP:  37;

PRAIRIE DU CHI PTCLDY    33  22  63 CALM      29.73S
PLATTEVILLE    PTCLDY    30  24  79 S7        29.75S WCI  23
$$

WIZ056-057-062-063-064-067-068-161300-
SOUTH CENTRAL WISCONSIN

CITY           SKY/WX    TMP DP  RH WIND       PRES   REMARKS
REEDSBURG      CLOUDY    27  27 100 E6        29.75R WCI  21
BARABOO/DELLS  CLOUDY    26  25  96 NE5       29.75R WCI  20
LONE ROCK      NOT AVBL
MINERAL POINT  CLOUDY    34  28  80 S5        29.74S WCI  30
MADISON        CLOUDY    33  24  69 S6        29.77R WCI  28
6HR MIN TEMP:  30; 6HR MAX TEMP:  34;

MIDDLETON      CLOUDY    35  24  64 S5        29.76R WCI  31
WATERTOWN      CLOUDY    31  28  89 E6        29.78R WCI  25
MONROE         CLOUDY    32  23  69 S8        29.75S WCI  25
JANESVILLE     CLOUDY    36  25  64 SW9       29.78S WCI  29
$$

WIZ051-052-058>065-066-070>072-161300-
SOUTHEAST WISCONSIN

CITY           SKY/WX    TMP DP  RH WIND       PRES   REMARKS
MILWAUKEE      CLOUDY    32  26  78 CALM      29.81S
6HR MIN TEMP:  31; 6HR MAX TEMP:  36;

WAUKESHA       CLOUDY    28  25  86 NE7       29.80F WCI  21
MILWAUKEE/TIMM CLOUDY    30  28  93 CALM      29.82S FOG
RACINE         CLOUDY    35  25  66 SW6       29.83R WCI  30
6HR MIN TEMP:  32; 6HR MAX TEMP:  35;

BURLINGTON     CLOUDY    34  26  73 S5        29.80R WCI  30
KENOSHA        CLOUDY    36  24  62 SW7       29.81R WCI  30
6HR MIN TEMP:  34; 6HR MAX TEMP:  36;

FOND DU LAC    CLOUDY    22  17  81 NE9       29.83R WCI  12
6HR MIN TEMP:  22; 6HR MAX TEMP:  25; 6HR PCP:  0.04;

SHEBOYGAN      LGT SNOW  21  20  96 NE12      29.85R FOG     WCI   9
6HR MIN TEMP:  19; 6HR MAX TEMP:  21; 6HR PCP:  0.05;

WEST BEND      CLOUDY    25  25 100 E3        29.81F
JUNEAU         CLOUDY    28  25  90 E9        29.78F WCI  19
$$

LSZ147-162-161300-
LAKE SUPERIOR

STATION/POSITION TIME  TEMP    WIND        PRES    WAVE
                       AIR SEA DIR/SP/G            HT/PER
                 (UTC) (F)     (DEG/KT/KT) (MB)    (FT/S)
DEVILS ISLAND    1100   22      70/ 19/ 22 1012.5R
SAXON HARBOR     1130   12                 1011.2R
$$

LMZ867-665-643>646-161300-
LAKE MICHIGAN

STATION/POSITION TIME  TEMP    WIND        PRES    WAVE
                       AIR SEA DIR/SP/G            HT/PER
                 (UTC) (F)     (DEG/KT/KT) (MB)    (FT/S)
NORTHPORT PIER   1140   20      40/  5/  8 1012.5R
KEWAUNEE LAKESHO 1130   18     350/  5/  7 1011.3R
SHEBOYGAN LAKESH 1100   27      40/ 15/ 16 1011.0F
PORT WASHINGTON  1130   33      60/ 11/ 13 1011.2R
MILWAUKEE LAKESH 1130   34      30/  4/  4   N/A
KENOSHA   LAKESH 1100   37     230/  6/ 13 1009.8
$$

TC  - TEMPERATURE IN CELSIUS
VSB - VISIBILITY IN STATUTE MILES
WCI - WIND CHILL INDEX
HX  - HEAT INDEX





USA.gov is the U.S. government's official web portal to all federal, state and local government web resources and services.